Regional Weather Roundup
Issued by NWS Charleston, SC

Current Version | Previous Version | Graphics & Text | Print | Product List | Glossary On
Versions: 1 2 3 4 5 6 7 8 9 10 11 12 13 14 15 16 17 18 19 20 21 22 23 24 25 26 27 28 29 30 31 32 33 34 35 36 37 38 39 40 41 42 43 44 45 46 47 48 49 50
000 ASUS42 KCHS 302012 RWRCHS REGIONAL WEATHER ROUNDUP NATIONAL WEATHER SERVICE CHARLESTON SC 400 PM EDT TUE JUN 30 2015 NOTE: "FAIR" INDICATES FEW OR NO CLOUDS BELOW 12,000 FEET WITH NO SIGNIFICANT WEATHER AND/OR OBSTRUCTIONS TO VISIBILITY. NOT ALL STATIONS ARE QUALITY CONTROLLED BY THE NATIONAL WEATHER SERVICE. USE DATA WITH CAUTION...ESPECIALLY DEWPOINT OBSERVATIONS. SCZ027-030-031-034>040-042>050-302100- ...SOUTHEAST SOUTH CAROLINA... CITY SKY/WX TMP DP RH WIND PRES REMARKS N CHARLESTON PTSUNNY 88 71 57 S18 29.96R HX 94 WATERFRONT PAR N/A 84 76 77 S15 29.94F HX 93 MOUNT PLEASANT LGT RAIN 86 75 70 S17G24 29.96S HX 95 JOHNS ISLAND FAIR 86 77 74 S17G24 29.98R HX 97 PINOPOLIS NOT AVBL MONCKS CORNER FAIR 95 64 36 S12G17 29.93S HX 97 SUMMERVILLE FAIR 91 70 49 S8 29.94F HX 97 BEAUFORT MCAS PTSUNNY 89 75 63 S8G20 29.96S HX 99 BEAUFORT ARPT FAIR 88 77 70 S8G18 29.97S HX 100 HILTON HEAD IS MOSUNNY 82 75 78 S9G16 29.99S WALTERBORO FAIR 90 68 48 S14G20 29.95S HX 93 ALLENDALE FAIR 93 66 40 S9 29.92F HX 96 ...SOUTHERN MIDLANDS AND PEE DEE... CITY SKY/WX TMP DP RH WIND PRES REMARKS GEORGETOWN NOT AVBL KINGSTREE NOT AVBL ORANGEBURG PTSUNNY 93 65 39 S12 29.91F HX 95 BARNWELL FAIR 93 66 40 S10G16 29.92F HX 96 AIKEN TSTM 70 64 83 S15 30.02R MANNING FAIR N/A N/A N/A S9G16 29.91F COLUMBIA PTSUNNY 91 64 40 SW8 29.90S HX 92 SUMTER MOSUNNY 92 65 40 SW12G21 29.89F HX 94 FLORENCE SUNNY 95 63 34 SW12G22 29.90S HX 96 MYRTLE BEACH MOSUNNY 88 73 62 S14G20 29.96F HX 96 N MYRTLE BEACH SUNNY 86 75 69 S17G25 29.94F HX 95 $$ GAZ063-065-086>088-099>101-113>116-118-119-134>141-150-302100- ...SOUTHEAST GEORGIA... CITY SKY/WX TMP DP RH WIND PRES REMARKS SAVANNAH ARPT CLOUDY 89 68 49 S14 29.98R HX 93 HUNTER AAF CLOUDY 89 73 60 SW10 29.97R HX 97 FORT STEWART CLOUDY 87 71 60 SW12 29.99R HX 92 STATESBORO PTSUNNY 90 73 58 SW13 29.97R HX 97 SYLVANIA MOCLDY 92 72 51 SW7 29.95S HX 99 CLAXTON FAIR 88 72 58 SW9G20 30.00R HX 94 ...CSRA...CENTRAL AND FAR SOUTHEAST GEORGIA... CITY SKY/WX TMP DP RH WIND PRES REMARKS THOMSON CLOUDY 73 73 99 S6 30.03F AUGUSTA-BUSH CLOUDY 77 69 76 W9 29.98R AUGUSTA-DANIEL CLOUDY 77 66 68 W9G21 29.99R SWAINSBORO TSTM N/A N/A N/A NW3 30.04R VIDALIA CLOUDY 82 64 54 W17G36 30.05R EASTMAN FAIR 72 72 100 CALM 30.04F HAZLEHURST NOT AVBL ALMA CLOUDY 74 70 87 NW8 30.05R WAYCROSS CLOUDY 76 74 95 SW5 30.05S JESUP FAIR 81 72 74 W8G21 30.05R BAXLEY CLOUDY 77 72 83 W7 30.05R BRUNSWICK CLOUDY 79 73 83 W7 30.05R SAINT SIMONS CLOUDY 81 72 74 SW14 30.04R $$ SCZ027-028-034-036>038-045-046-048>050-GAZ119-141-302100- ...LAKE AND SUPPLEMENTAL COASTAL OBSERVATIONS... STATION/POSITION TIME TEMP WIND PRES WAVE SWELL AIR SEA DIR/SP/G HT/PER HT/PER/DIR (UTC) (F) (DEG/KT/KT) (MB) (FT/S) (FT/S/D) UPR LAKE MARION NOT AVBL WINYAH BAY NOT AVBL LAKE MURRAY 1900 89 200/ 5/ 9 1011.9F ACE BASIN NERRS NOT AVBL FORT PULASKI 1900 85 85 160/ 9/ 16 1015.8F SAPELO ISLAND 1900 89 230/ 9 1016.0S $$ ANZ835-935-AMZ111-154-330-350-352-354-370-450-454-472-302100- ...C-MAN AND BUOY OBSERVATIONS... STATION/POSITION TIME TEMP WIND PRES WAVE SWELL AIR SEA DIR/SP/G HT/PER HT/PER/DIR (UTC) (F) (DEG/KT/KT) (MB) (FT/S) (FT/S/D) BUOY 41004 1950 82 83 190/ 14/ 16 1015.1F 3/ 8 2/ 8 BUOY 41008 1950 80 81 190/ 17/ 21 1016.6R 2/ 8 2/110/ 8 FOLLY BEACH CMAN 2000 82 190/ 18/ 21 1015.3S CAPERS NEARSHORE 1908 82 200/ 16/ 19 1015.4 FRIPP NEARSHORE 1900 82 190/ 16/ 19 1015.0F STATION/POSITION TIME TEMP WIND PRES WAVE SWELL AIR SEA DIR/SP/G HT/PER HT/PER/DIR (UTC) (F) (DEG/KT/KT) (MB) (FT/S) (FT/S/D) 5E ST. MARYS GA 1921 79 N/A 2/ 8 FRYING PAN BUOY 1950 82 80 210/ 12/ 14 1015.5F 3/ 6 2/140/ 6 BUOY 41025 1950 83 83 210/ 16/ 17 1014.2F 3/ 7 2/100/ 8 CAPE LOOKOUT NC 1900 83 210/ 12/ 16 1014.7F BUOY 41002 1950 79 80 230/ 14/ 16 1017.9F 6/ 7 5/190/ 7 BUOY 41010 1920 83 84 240/ 8/ 10 1019.0F ST AUGUSTINE FL 2000 82 75 170/ 9/ 10 1018.0R $$

USA.gov is the U.S. government's official web portal to all federal, state and local government web resources and services.